TimeCET,TemperatureF,Dew PointF,Humidity,Sea Level PressureIn,VisibilityMPH,Wind Direction,Wind SpeedMPH,Gust SpeedMPH,PrecipitationIn,Events,Conditions,WindDirDegrees,DateUTC
12:15 AM,48.2,42.8,82,30.27,6.2,NNE,3.5,-,N/A,,Scattered Clouds,30,2013-01-02 23:15:00
12:45 AM,48.2,44.6,87,30.27,6.2,NE,4.6,-,N/A,,Scattered Clouds,40,2013-01-02 23:45:00
1:15 AM,46.4,42.8,87,30.27,6.2,NE,5.8,-,N/A,,Scattered Clouds,40,2013-01-03 00:15:00
1:45 AM,46.4,44.6,93,30.27,6.2,NNE,4.6,-,N/A,,Scattered Clouds,20,2013-01-03 00:45:00
2:15 AM,46.4,44.6,93,30.30,6.2,NNE,4.6,-,N/A,,Scattered Clouds,30,2013-01-03 01:15:00
2:45 AM,48.2,42.8,82,30.30,6.2,NNE,4.6,-,N/A,,Scattered Clouds,20,2013-01-03 01:45:00
3:15 AM,46.4,41.0,81,30.30,6.2,North,4.6,-,N/A,,Scattered Clouds,360,2013-01-03 02:15:00
3:45 AM,46.4,41.0,81,30.33,6.2,North,4.6,-,N/A,,Scattered Clouds,360,2013-01-03 02:45:00
4:15 AM,46.4,41.0,81,30.33,6.2,NNE,5.8,-,N/A,,Scattered Clouds,20,2013-01-03 03:15:00
4:45 AM,44.6,37.4,76,30.33,6.2,NNE,4.6,-,N/A,,Scattered Clouds,20,2013-01-03 03:45:00
5:15 AM,44.6,41.0,87,30.33,6.2,NNE,3.5,-,N/A,,Scattered Clouds,20,2013-01-03 04:15:00
5:45 AM,44.6,41.0,87,30.33,6.2,North,2.3,-,N/A,,Scattered Clouds,10,2013-01-03 04:45:00
6:15 AM,44.6,41.0,87,30.36,6.2,NNE,3.5,-,N/A,,Scattered Clouds,20,2013-01-03 05:15:00
6:45 AM,44.6,39.2,81,30.39,6.2,NNE,4.6,-,N/A,,Scattered Clouds,30,2013-01-03 05:45:00
7:15 AM,42.8,41.0,93,30.39,6.2,NE,4.6,-,N/A,,Scattered Clouds,40,2013-01-03 06:15:00
7:45 AM,41.0,39.2,93,30.42,6.2,NE,4.6,-,N/A,,Scattered Clouds,50,2013-01-03 06:45:00
8:15 AM,42.8,39.2,87,30.42,6.2,NE,3.5,-,N/A,,Partly Cloudy,40,2013-01-03 07:15:00
8:45 AM,44.6,41.0,87,30.45,6.2,NNE,3.5,-,N/A,,Partly Cloudy,30,2013-01-03 07:45:00
9:15 AM,46.4,41.0,81,30.45,6.2,NE,4.6,-,N/A,,Partly Cloudy,40,2013-01-03 08:15:00
9:45 AM,46.4,41.0,81,30.45,6.2,NNE,5.8,-,N/A,,Partly Cloudy,30,2013-01-03 08:45:00
10:15 AM,48.2,42.8,82,30.48,6.2,NNE,2.3,-,N/A,,Partly Cloudy,20,2013-01-03 09:15:00
10:45 AM,50.0,42.8,76,30.48,6.2,NNE,5.8,-,N/A,,Partly Cloudy,30,2013-01-03 09:45:00
11:15 AM,50.0,42.8,76,30.48,6.2,NNE,4.6,-,N/A,,Partly Cloudy,30,2013-01-03 10:15:00
11:45 AM,51.8,42.8,71,30.48,6.2,NNE,4.6,-,N/A,,Partly Cloudy,20,2013-01-03 10:45:00
12:15 PM,53.6,44.6,72,30.45,6.2,NNE,3.5,-,N/A,,Partly Cloudy,20,2013-01-03 11:15:00
12:45 PM,53.6,42.8,67,30.45,6.2,North,5.8,-,N/A,,Partly Cloudy,350,2013-01-03 11:45:00
1:15 PM,55.4,42.8,63,30.45,6.2,North,4.6,-,N/A,,Partly Cloudy,10,2013-01-03 12:15:00
1:45 PM,55.4,42.8,63,30.45,6.2,NNE,3.5,-,N/A,,Partly Cloudy,20,2013-01-03 12:45:00
2:15 PM,57.2,44.6,63,30.45,6.2,NNE,2.3,-,N/A,,Partly Cloudy,30,2013-01-03 13:15:00
2:45 PM,57.2,44.6,63,30.45,6.2,NNE,3.5,-,N/A,,Partly Cloudy,30,2013-01-03 13:45:00
3:15 PM,57.2,44.6,63,30.45,6.2,North,3.5,-,N/A,,Scattered Clouds,360,2013-01-03 14:15:00
3:45 PM,57.2,42.8,59,30.45,6.2,North,2.3,-,N/A,,Mostly Cloudy,10,2013-01-03 14:45:00
4:15 PM,57.2,42.8,59,30.45,6.2,NE,1.2,-,N/A,,Mostly Cloudy,40,2013-01-03 15:15:00
4:45 PM,55.4,42.8,63,30.45,-9999.0,ENE,2.3,-,N/A,,Clear,60,2013-01-03 15:45:00
5:15 PM,53.6,42.8,67,30.45,-9999.0,East,2.3,-,N/A,,Clear,100,2013-01-03 16:15:00
5:45 PM,51.8,41.0,67,30.45,-9999.0,East,2.3,-,N/A,,Clear,90,2013-01-03 16:45:00
6:15 PM,50.0,42.8,76,30.48,-9999.0,East,1.2,-,N/A,,Clear,100,2013-01-03 17:15:00
6:45 PM,48.2,42.8,82,30.48,-9999.0,Calm,Calm,-,N/A,,Clear,0,2013-01-03 17:45:00
7:15 PM,46.4,42.8,87,30.48,-9999.0,East,2.3,-,N/A,,Clear,90,2013-01-03 18:15:00
7:45 PM,46.4,41.0,81,30.48,-9999.0,East,3.5,-,N/A,,Clear,80,2013-01-03 18:45:00
8:15 PM,46.4,41.0,81,30.48,-9999.0,East,3.5,-,N/A,,Clear,80,2013-01-03 19:15:00
8:45 PM,46.4,42.8,87,30.48,-9999.0,ESE,2.3,-,N/A,,Clear,110,2013-01-03 19:45:00
9:15 PM,46.4,41.0,81,30.48,-9999.0,Calm,Calm,-,N/A,,Clear,0,2013-01-03 20:15:00
9:45 PM,46.4,41.0,81,30.48,-9999.0,Calm,Calm,-,N/A,,Clear,0,2013-01-03 20:45:00
10:15 PM,44.6,41.0,87,30.48,-9999.0,Calm,Calm,-,N/A,,Clear,0,2013-01-03 21:15:00
10:45 PM,44.6,41.0,87,30.48,-9999.0,Calm,Calm,-,N/A,,Clear,0,2013-01-03 21:45:00
11:15 PM,44.6,41.0,87,30.48,-9999.0,Calm,Calm,-,N/A,,Clear,0,2013-01-03 22:15:00
11:45 PM,42.8,41.0,93,30.48,-9999.0,Calm,Calm,-,N/A,,Clear,0,2013-01-03 22:45:00